STARLINK-35561, 66105

Orbit data source: Space-Track

STARLINK-35561, 66105 is a payload satellite owned by SpaceX/Seattle (US) in LEO that was launched on Sun, 19 Oct 2025 UTC via an FALCON 9 launch vehicle from the Air Force Western Test Range (AFWTR). Payload-class satellites include a variety of spacecraft equipped with specific instruments for various scientific and technological missions. These include communications satellites like Starlink; space stations such as the ISS; scientific satellites like the Hubble; Earth observation satellites from companies like Planet Labs, Umbra, and HawkEye 360; GPS; miniature CubeSats for education and research; and military/defense satellites.

Loading next visibility...
Identifier
66105, 2025-236V
Orbit
LEO
Country
Flag of USUS
Related business
Manufacturer
SpaceX/Seattle
Mission
Operational Commercial Communications
Bus & Motor
STARLINK V2MO, Unknown motor
Mass
575 kg wet, ~530 kg dry
Launch date (UTC)
2025-10-19 (6 months ago)
Launch vehicle
FALCON 9
Launch site
Air Force Western Test Range (AFWTR)
Object type
Payload
Rocket body
Debris
Shape & HBR
Box + 2 Pan, 17.7 m
Radar Cross Section
36.964 m²

Expand to show TLE details & history
Last TLE update: 14 hours ago

TLE from 14 hours ago
0 STARLINK-35561
1 66105U 25236V   26095.07646592  .00035307  00000-0  11988-2 0  9994
2 66105  53.1620 341.3693 0001141  90.9974 269.1158 15.30193433 26924
Epoch: 2026-04-05T01:50Z
TLE epoch observation values (Epoch: 2026-04-05T01:50:06.655Z)
Latitude
0.00002°
Longitude
120.4545°
Altitude
476.147 km
Speed
7.629 km/s
True Right ascension
22h 45m 28s
True Declination
0° 00' 00"
Sunlit
Object was in daylight at epoch
Visualization orbit readout
Latitude
Unknown
Longitude
Unknown
Altitude
Unknown
Speed
Unknown
Apparent Right ascension
Unknown
Apparent Declination
Unknown
Sunlit
N/A
Visualization observer readout
Local Sidereal Time
21:54:13
Azimuth
Unknown
Elevation
Unknown
Doppler factor
Unknown
Orbital elements
Apogee altitude
476.273 km
Perigee altitude
474.709 km
Semi-major axis
6,853.628 km
Eccentricity
0.00011
Inclination
53.162°
RAAN
341.3693°
Arg. of periapsis
90.9974°
True anomaly
269.10273°
Mean anomaly
269.1158°
Eccentric anomaly
269.10926°
Mean motion
3.82527 °/min
Orbital period
94.11 mins
BSTAR
0.0011988
Loading maneuver chart data...
Computing Atmospheric mass density...
Loading historical data...
Loading historical data...
Loading historical data...
Loading historical data...
Loading historical data...
Loading historical data...
Loading historical data...

Documentation

Showing up to 5 results
|